Wind_Speed
39 40 41 44 47 49 49 49 47 46 45 43 41 39 36 33 31 30 30 30 30 30 31 31 31 31 31 31 31 31 31 31 31 31 31 32 34 35 36 36 34 33 31 30 30 30 30 30 30 29 29 29 28 27 27 27 27 27 28 28 28 27 26 26 26 26 26 26 26 25 23 21 21 21 21 22 22 22 22 21 21 20 20 20 20 20
41 42 44 46 48 49 49 48 46 44 43 42 40 38 35 32 31 31 31 31 31 31 31 31 31 31 31 31 31 32 32 32 31 31 32 33 34 35 36 35 34 32 30 29 28 29 29 30 30 30 30 29 29 28 27 27 27 27 28 28 28 27 27 26 26 26 26 26 27 26 24 22 21 20 20 21 21 21 21 21 21 21 21 21 20 20
42 44 46 48 49 49 49 48 46 44 42 40 38 36 34 32 32 32 32 32 32 32 32 31 31 31 31 31 32 32 32 32 32 32 33 33 34 35 35 34 32 30 29 28 28 29 30 31 32 31 31 30 30 29 28 27 27 27 28 28 28 28 27 27 26 26 26 26 26 26 25 24 22 20 20 20 20 20 21 21 21 21 21 21 21 21
43 46 49 50 50 50 50 48 47 45 43 40 37 35 33 32 32 33 33 33 32 32 32 32 32 31 31 32 32 33 33 32 33 33 34 34 35 35 34 32 31 29 28 28 29 31 32 32 33 33 32 31 30 29 28 28 27 28 28 28 28 28 28 28 27 26 26 25 26 26 26 25 23 22 21 20 20 20 20 20 21 22 22 22 21 21
44 48 50 51 51 51 51 51 49 48 45 41 37 34 33 32 32 33 33 33 33 33 33 33 32 32 32 32 33 33 33 33 34 34 35 35 35 34 33 31 29 28 29 30 32 33 33 33 33 33 33 32 31 30 29 28 28 28 28 28 28 28 28 28 28 27 26 25 25 26 26 25 24 23 22 21 20 20 20 20 21 21 22 22 22 21
46 48 50 51 51 51 52 52 51 50 47 43 38 35 33 33 33 33 34 34 35 35 34 34 33 32 32 32 33 33 33 34 35 35 36 35 35 33 32 30 28 29 31 33 34 34 34 34 33 33 33 32 31 30 29 29 28 28 28 28 28 29 29 28 28 27 26 25 25 25 25 25 25 24 23 22 21 20 20 20 20 21 22 22 22 21
47 49 49 50 50 50 50 51 51 50 48 44 40 36 34 34 34 35 35 36 36 36 36 35 34 33 32 33 33 33 34 35 36 36 36 36 35 33 31 29 29 30 33 34 34 34 34 33 33 33 32 32 31 30 30 29 29 28 28 28 28 29 29 29 28 28 27 26 25 25 25 25 25 24 24 23 22 22 21 21 21 21 21 22 22 22
49 50 50 49 49 49 48 49 50 50 48 45 41 38 36 35 36 36 37 37 38 38 38 37 36 34 33 33 33 33 34 35 37 37 37 36 34 32 30 29 30 33 34 34 34 34 33 32 32 32 32 31 31 30 30 30 29 28 28 28 28 29 29 29 29 28 27 26 25 25 25 25 25 25 24 24 23 23 22 22 21 21 22 22 22 22
50 51 51 51 50 48 46 47 48 49 48 46 42 39 37 37 38 38 39 39 40 41 41 40 38 36 34 33 33 34 35 36 37 37 37 36 34 32 30 30 32 34 34 34 33 32 31 31 31 31 31 31 32 31 31 30 29 29 28 28 28 29 29 29 29 28 27 26 25 25 24 24 24 25 24 24 24 23 23 23 22 22 22 22 23 23
52 53 54 54 53 50 47 45 46 48 48 46 44 41 39 38 39 40 41 42 43 44 44 42 39 36 34 33 34 35 36 37 37 37 37 36 34 32 31 32 34 34 34 33 32 31 30 31 31 31 31 32 32 33 32 32 31 30 29 28 28 29 29 29 29 28 28 27 26 25 24 24 24 24 24 24 24 24 23 23 23 23 23 23 23 23
53 55 56 56 56 53 49 46 46 47 48 47 45 43 41 40 40 41 42 43 45 45 45 42 39 36 34 33 34 35 36 37 37 36 36 36 35 34 33 34 34 34 33 32 31 30 31 31 30 30 30 31 32 33 34 34 33 31 30 29 28 29 29 29 29 28 28 27 26 25 24 24 24 24 24 24 24 24 24 24 24 24 24 24 24 24
54 56 57 58 57 54 49 46 46 47 47 47 46 44 42 41 40 41 42 44 45 46 45 41 38 35 33 33 33 34 34 35 35 36 37 39 39 38 36 35 34 33 32 31 31 32 32 32 31 30 30 30 31 33 34 34 34 33 30 29 28 29 29 29 29 29 28 27 26 25 24 24 24 23 24 24 24 24 24 24 24 24 24 24 24 24
55 57 58 58 57 54 49 46 46 47 48 47 46 44 43 42 41 41 42 44 45 45 43 39 36 34 33 32 32 33 33 34 36 38 41 43 43 41 38 35 33 32 32 32 33 34 34 33 32 30 29 30 30 31 33 34 33 32 30 28 28 28 29 29 29 29 28 27 26 25 24 24 23 23 23 23 23 24 24 24 24 24 24 24 24 24
57 58 59 59 57 53 49 47 47 47 48 47 46 44 43 42 41 41 42 44 45 44 42 38 36 34 32 31 32 33 34 35 37 41 44 46 45 41 37 35 33 33 33 34 35 36 36 34 32 30 29 29 29 30 31 31 31 29 28 27 27 28 28 29 29 28 27 26 26 25 24 23 23 23 23 23 23 23 23 23 24 24 24 24 24 24
58 59 60 59 57 53 50 48 48 48 47 46 45 44 43 42 42 42 43 45 45 44 42 40 37 35 32 32 33 35 35 35 38 41 44 43 41 38 36 35 34 33 34 35 36 37 36 34 31 29 28 28 28 28 28 28 27 27 26 26 26 27 28 28 28 27 26 26 25 24 24 23 23 23 22 22 22 22 23 23 23 23 23 24 24 24
58 59 59 59 57 54 51 50 49 48 47 45 45 44 43 43 43 43 44 45 46 46 44 42 39 36 34 34 35 36 35 34 36 39 40 38 36 35 34 34 33 33 33 35 36 36 34 31 29 28 28 28 27 26 26 25 25 25 26 26 26 26 27 27 27 26 25 25 24 23 23 23 22 22 22 22 22 22 22 22 23 23 23 23 24 24
58 59 59 59 58 56 53 52 51 49 47 45 45 44 44 43 43 44 45 46 46 47 46 43 40 37 35 36 36 36 34 34 36 37 37 36 34 33 33 32 32 32 32 33 33 33 31 29 28 27 27 26 25 24 24 24 25 25 25 26 25 25 26 26 25 25 24 23 23 23 22 22 22 22 22 22 22 22 22 22 22 22 23 23 23 24
59 60 60 60 59 57 56 54 52 49 47 45 44 44 44 44 44 45 46 46 47 47 46 43 39 36 36 37 37 36 34 35 36 37 37 36 34 33 32 31 30 30 30 30 30 30 28 27 27 27 26 25 24 23 23 24 24 25 25 25 25 24 25 24 24 23 23 22 22 22 22 22 21 21 21 21 21 21 22 22 22 22 23 23 23 24
61 61 61 61 60 59 57 55 53 50 47 45 44 43 44 44 45 46 46 47 47 46 44 40 37 36 37 37 37 35 34 36 37 38 37 36 34 33 31 30 29 28 28 28 28 27 26 26 25 25 24 23 23 23 23 24 24 24 24 23 23 23 23 23 23 22 22 21 21 21 21 21 21 21 21 21 21 21 22 22 22 22 22 23 23 23
63 63 63 62 61 59 57 56 54 51 47 45 43 43 44 45 46 47 47 47 47 46 43 39 37 36 37 37 36 35 36 37 38 38 37 36 35 33 31 29 28 27 27 27 26 26 25 24 24 23 23 22 22 23 23 23 23 23 23 22 22 22 22 22 21 21 21 21 20 20 20 20 20 20 21 21 21 21 21 21 22 22 22 22 23 23
65 65 64 63 61 58 57 56 54 51 47 45 43 43 44 45 46 47 48 48 47 45 42 39 37 37 36 36 36 37 38 38 38 37 36 35 34 32 30 28 27 26 26 25 25 24 24 23 22 22 22 22 22 23 23 23 23 22 22 22 21 21 21 21 20 20 20 20 20 20 20 20 20 20 20 20 21 21 21 21 21 21 22 22 22 23
66 65 64 61 59 56 55 55 53 50 47 45 44 44 45 46 47 48 49 48 46 43 40 38 37 36 36 37 38 39 39 39 38 36 35 33 32 31 29 27 26 25 25 25 24 24 23 22 22 22 22 23 23 23 23 23 22 22 21 21 21 20 20 20 20 19 19 19 19 19 19 19 19 20 20 20 20 20 20 20 20 21 21 22 22 22
64 62 60 57 55 54 54 54 52 50 47 45 44 45 46 47 48 49 49 48 44 40 38 37 37 36 37 38 39 40 40 39 37 35 34 32 30 29 28 26 25 25 25 25 24 24 23 22 22 22 23 23 23 23 22 22 21 21 21 20 20 20 19 19 19 19 19 19 19 19 19 19 19 19 19 19 19 19 19 20 20 20 21 21 21 22
58 55 54 52 52 52 52 52 51 49 47 46 46 47 48 49 50 50 49 45 41 38 37 37 37 38 38 40 41 41 40 38 36 34 32 31 29 28 27 26 25 25 25 25 25 24 24 23 23 23 23 23 23 22 22 21 21 21 20 20 19 19 19 19 18 18 18 18 18 18 18 18 18 18 18 18 19 19 19 19 20 20 20 21 21 21
53 51 50 50 51 51 52 52 51 49 48 47 47 48 49 49 49 48 46 42 38 36 36 37 38 40 40 41 42 41 39 37 36 33 32 30 29 28 27 26 26 26 26 25 25 25 24 23 23 23 23 22 22 22 21 21 21 20 20 19 19 19 18 18 18 18 18 18 17 17 17 17 17 17 18 18 18 18 19 19 19 20 20 20 21 21
52 51 50 51 51 51 52 51 50 49 49 48 49 49 49 49 47 45 41 38 35 35 36 38 40 41 42 42 41 39 38 37 35 33 31 30 30 29 28 27 26 26 26 26 26 25 24 23 22 22 22 22 21 21 21 21 20 20 19 19 19 18 18 18 18 17 17 17 17 17 17 17 17 17 17 18 18 18 19 19 20 20 20 20 21 21
51 51 51 51 51 51 51 51 50 50 49 49 49 49 48 47 44 41 37 34 34 35 37 39 42 43 42 41 39 38 37 36 35 33 32 31 30 29 28 27 26 27 27 26 25 25 23 23 22 22 22 21 21 21 21 21 20 20 19 19 18 18 17 17 17 17 16 16 16 16 16 16 16 17 17 17 18 18 19 19 20 20 20 20 21 21
50 50 50 50 51 51 51 51 50 50 49 48 48 47 46 44 41 37 34 33 33 35 38 41 42 42 40 38 37 37 37 36 35 33 32 31 30 29 27 27 27 27 26 26 25 24 23 22 22 21 21 21 21 21 21 20 20 19 19 18 18 17 17 17 16 16 16 16 16 16 16 16 17 17 17 18 18 18 19 19 19 20 20 20 20 21
49 49 49 49 49 49 50 49 49 48 47 46 46 45 44 41 37 34 32 32 34 37 40 42 41 40 38 37 37 37 37 36 35 33 32 31 29 28 27 27 27 26 26 25 24 23 22 22 21 21 21 21 21 21 21 20 20 19 18 18 17 17 17 17 16 16 16 16 16 16 16 17 17 17 18 18 18 19 19 19 19 19 20 20 20 20
50 50 49 49 48 48 48 47 46 46 45 45 45 44 42 39 35 32 32 34 37 39 41 41 40 38 37 37 38 38 37 35 34 32 30 29 28 27 27 27 26 26 25 24 23 22 22 21 21 21 21 21 21 21 21 20 19 19 18 18 17 17 17 17 17 16 16 16 16 17 17 17 17 18 18 18 19 19 19 19 19 19 19 19 19 20
52 51 49 48 47 47 46 45 44 44 44 44 43 42 40 36 33 33 34 37 39 41 41 39 38 37 37 37 37 37 35 34 32 30 28 27 27 26 26 26 26 25 24 23 22 21 21 21 21 21 21 21 21 20 20 20 19 19 18 18 18 17 17 17 17 16 16 16 17 17 17 18 18 18 19 19 19 19 19 19 19 19 19 19 19 19
54 51 49 48 47 46 45 44 44 44 44 44 43 41 37 34 33 34 36 39 41 41 40 38 36 36 36 36 36 34 33 31 29 28 27 26 26 26 26 25 24 23 23 22 21 21 20 20 21 21 21 21 20 20 20 20 19 19 18 18 18 17 17 17 17 17 16 17 17 17 18 18 18 19 19 19 19 19 19 19 19 19 19 19 19 19
53 51 49 47 46 45 45 44 44 45 46 46 43 40 36 34 35 36 37 39 40 39 37 35 34 34 34 34 33 32 30 29 28 27 26 26 26 26 25 24 23 22 22 21 21 20 20 20 20 21 21 21 20 20 20 19 19 19 18 18 17 17 17 17 17 17 17 17 18 18 18 19 19 19 19 19 19 19 19 19 19 19 19 19 19 19
51 49 48 47 47 46 45 45 46 47 47 46 43 40 37 36 37 37 38 38 38 36 34 33 33 33 33 32 32 30 29 28 27 26 26 26 26 25 24 23 22 21 21 21 20 20 20 21 21 21 21 21 21 20 20 19 19 18 18 18 17 17 17 17 17 17 18 18 18 19 19 19 19 19 19 19 19 19 19 20 20 20 20 20 20 20
49 49 48 48 47 47 46 47 48 48 47 45 42 40 38 38 38 38 37 36 35 34 33 33 32 32 32 31 30 29 28 27 26 26 26 26 25 24 23 22 22 21 21 21 21 20 21 21 21 21 21 21 21 20 20 19 19 18 18 18 17 17 17 17 18 18 18 19 19 19 19 20 20 19 19 19 19 19 20 20 20 20 20 20 20 20
48 48 48 48 48 47 47 48 49 48 47 45 42 40 39 38 38 37 36 35 34 33 33 33 32 32 31 30 29 28 28 27 26 26 26 25 25 24 23 22 22 21 21 21 21 21 21 21 21 21 21 21 20 20 20 20 19 18 18 18 18 18 18 18 18 19 19 19 19 20 20 20 20 20 20 20 20 20 20 20 20 20 20 20 20 20
48 48 49 49 49 48 48 49 50 49 47 45 43 41 40 38 37 35 35 34 34 34 33 33 32 31 30 29 28 28 28 27 27 26 26 25 24 23 22 22 22 22 22 22 22 21 21 21 21 21 21 20 20 20 20 20 19 19 18 18 18 18 18 19 19 19 20 20 20 20 20 20 20 20 20 20 20 20 20 21 21 21 21 21 21 20
49 50 50 50 49 48 49 50 50 49 47 45 43 41 39 37 36 35 35 35 35 34 33 33 32 30 29 28 28 28 28 27 27 27 26 25 24 23 23 22 22 22 22 22 22 21 21 21 21 20 20 20 20 20 20 20 19 19 19 19 19 19 19 20 20 20 20 20 20 20 20 20 20 20 20 20 20 21 21 21 21 21 21 21 21 21
50 51 51 50 49 49 49 50 50 48 46 44 42 39 37 36 36 36 36 36 35 34 33 32 31 30 29 28 28 28 28 28 27 26 25 24 24 23 23 23 22 22 22 22 21 21 21 21 21 20 20 20 20 20 20 20 20 20 20 20 20 20 20 21 21 21 21 21 21 21 21 21 21 21 21 21 21 21 21 21 22 22 22 22 22 22
50 50 50 49 49 49 50 50 48 46 44 42 40 38 36 37 37 37 37 36 34 33 32 31 30 29 28 28 28 28 28 27 27 26 25 24 23 23 23 23 22 22 22 21 21 21 21 21 21 21 21 21 21 21 21 21 21 21 21 20 20 20 21 21 21 21 21 21 21 21 21 21 21 21 21 21 21 21 22 22 22 22 22 22 22 22
49 49 49 48 49 49 49 48 46 44 42 40 38 37 37 38 38 37 36 35 34 32 31 30 29 29 29 29 29 28 28 27 26 25 24 24 24 23 23 23 22 22 22 21 21 21 21 21 21 21 21 21 22 22 22 22 22 22 22 21 21 21 22 22 22 22 22 22 22 22 22 22 22 22 22 22 22 22 22 22 22 23 23 23 23 22
48 48 48 48 49 49 49 47 45 43 41 39 38 38 39 39 38 37 35 34 33 31 30 29 29 29 29 29 29 28 28 27 26 25 24 24 24 23 23 23 22 22 21 21 21 21 21 21 21 21 22 22 22 22 22 23 23 23 22 22 22 22 22 22 23 23 23 23 23 23 23 23 22 22 22 22 22 22 23 23 23 23 23 23 23 23
48 48 48 49 49 48 48 46 44 42 40 40 40 40 40 38 37 35 34 33 31 30 30 29 29 29 29 29 28 28 27 26 26 25 24 24 24 23 23 22 22 22 21 21 21 21 22 22 22 22 23 23 23 23 23 23 24 24 23 23 23 22 22 22 23 23 23 23 23 23 23 23 23 23 23 23 23 23 23 23 24 24 24 24 24 24
48 48 49 49 48 48 47 45 43 41 41 41 41 41 39 38 36 34 33 32 31 30 30 29 29 29 29 28 28 27 27 26 25 25 24 24 24 23 23 22 22 22 22 22 21 22 22 22 23 23 23 24 24 24 24 24 24 24 24 24 23 23 23 23 23 24 24 24 24 24 24 24 24 24 24 23 24 24 24 24 24 24 25 25 25 24
49 49 49 49 48 47 45 43 42 42 42 42 41 40 38 36 35 33 32 31 30 30 30 30 29 29 29 28 28 27 27 26 25 25 24 24 23 23 23 22 22 22 22 22 22 22 22 23 23 24 24 24 24 24 24 25 25 25 24 24 24 24 24 24 24 24 24 25 25 25 25 25 25 24 24 24 24 24 24 25 25 25 25 25 25 25
48 49 49 49 48 46 44 43 43 43 43 42 40 38 36 35 33 32 31 30 29 29 29 29 29 28 28 28 27 27 27 26 25 25 24 24 23 23 23 23 23 23 23 23 23 23 23 23 24 24 24 25 25 25 25 25 25 25 25 25 25 25 25 25 25 25 25 25 25 26 26 26 26 25 25 25 25 25 25 25 25 25 25 25 26 25
49 49 49 48 46 45 44 44 43 43 42 40 38 36 34 33 31 30 30 29 29 29 29 29 28 28 28 27 27 27 26 26 25 25 24 24 24 23 23 23 23 23 23 23 23 23 24 24 24 24 24 24 24 25 25 25 25 25 25 25 25 25 25 25 26 26 26 26 26 26 27 26 26 26 26 25 25 25 25 25 26 26 26 26 26 26
48 48 47 46 45 44 44 44 43 41 40 38 36 34 33 31 30 30 29 29 29 28 28 28 28 27 27 27 27 27 26 26 25 25 24 24 24 24 23 23 23 24 24 24 24 24 24 25 25 25 25 25 25 25 25 25 25 25 25 25 26 26 26 26 27 27 27 27 27 27 27 27 27 26 26 26 25 25 25 26 26 26 26 26 26 26
47 46 45 44 43 43 43 42 41 39 37 36 34 32 31 30 30 29 29 28 28 28 27 27 27 27 27 27 26 26 26 25 25 25 24 24 24 24 24 24 24 24 24 24 24 25 25 25 26 26 26 25 25 25 25 25 25 25 26 26 26 26 27 27 27 27 27 27 27 27 27 27 27 27 26 26 25 25 25 25 26 26 26 26 26 26
44 43 42 42 42 41 41 39 38 36 35 33 32 31 30 30 29 29 28 28 28 27 27 27 27 27 26 26 26 26 26 25 25 25 25 25 25 24 24 24 24 24 25 25 25 25 25 25 26 26 26 26 26 25 25 25 26 26 26 26 27 27 27 27 27 27 27 27 27 27 27 27 27 27 26 26 26 25 25 25 25 25 26 26 26 25
41 41 40 40 40 39 38 37 36 34 33 32 31 30 30 29 29 29 28 28 27 27 27 27 26 26 26 26 26 26 26 26 25 25 25 25 25 25 25 25 25 25 25 25 25 25 25 25 25 25 26 26 26 26 25 25 25 26 26 26 27 27 27 27 27 27 27 27 27 27 27 27 27 26 26 26 26 25 25 25 25 25 25 25 25 25
Wind_Direction
228 228 229 229 228 226 225 224 224 226 228 231 234 238 241 246 249 250 250 251 254 258 262 266 270 273 277 280 284 288 291 293 295 296 297 297 297 297 297 296 295 294 293 293 294 294 292 287 279 272 265 262 263 266 271 278 285 290 295 297 298 300 302 305 306 306 304 302 300 298 297 295 293 292 292 291 292 293 293 292 292 291 291 291 292 293
228 228 229 230 229 227 226 226 227 228 230 233 236 239 242 246 248 249 249 251 253 257 261 265 269 272 276 279 283 287 290 292 294 295 295 296 296 295 295 294 293 292 292 293 295 295 293 287 281 274 268 263 262 263 268 275 282 288 293 295 297 299 301 304 305 305 303 301 299 298 297 295 293 290 289 288 289 290 291 291 291 290 290 290 291 292
228 230 231 231 230 229 229 229 231 232 234 236 239 241 244 246 248 248 249 250 253 256 260 264 267 271 274 278 282 286 288 290 292 293 294 294 294 295 294 293 292 290 291 293 295 295 292 288 283 277 271 266 262 262 266 272 279 286 290 293 295 297 300 302 304 303 302 299 298 297 297 296 294 291 288 287 287 287 288 289 289 289 289 289 290 291
230 231 232 232 232 232 232 233 235 237 239 240 242 243 245 247 247 247 248 249 251 254 258 262 265 269 273 277 281 284 287 289 290 291 292 293 293 294 293 291 290 290 292 294 295 294 291 288 284 279 274 268 264 262 264 270 276 283 287 290 293 296 298 301 302 302 300 298 296 295 295 295 293 292 289 287 286 285 286 286 286 287 288 289 290 291
231 233 234 234 233 234 235 237 239 240 242 243 244 246 246 247 247 246 246 247 250 253 256 260 263 267 271 275 279 282 285 287 288 290 291 292 292 292 291 290 289 290 291 291 290 290 289 288 285 281 276 270 265 262 263 267 273 279 284 287 290 293 296 298 300 300 299 296 294 293 293 293 292 291 290 288 287 285 284 284 285 286 288 289 290 291
231 233 234 234 234 235 237 238 240 242 243 244 245 246 247 246 244 243 243 245 249 252 255 258 262 265 269 273 277 280 283 285 287 288 289 290 291 290 289 288 288 288 287 285 285 286 287 287 284 280 276 271 266 262 262 265 270 276 280 284 287 290 293 296 297 298 297 294 292 290 290 290 290 290 290 289 287 286 285 284 285 286 287 288 289 290
232 234 234 234 234 235 236 238 240 242 243 244 245 246 246 244 242 241 241 245 248 251 253 257 260 263 267 271 275 278 281 284 286 287 288 289 289 288 287 286 285 283 281 280 281 284 286 286 284 280 275 270 266 262 261 264 268 273 276 280 283 287 290 292 294 295 294 292 289 287 288 288 288 289 288 288 287 287 286 286 285 285 286 287 289 290
232 234 234 233 233 234 235 237 240 241 242 243 244 245 245 243 241 241 242 244 247 250 252 255 258 261 265 268 272 276 279 282 284 285 286 286 286 285 284 283 280 278 276 277 280 282 285 285 284 280 275 269 265 262 261 263 266 270 273 276 280 283 287 290 292 292 291 289 286 285 285 286 286 286 287 287 287 287 287 287 286 286 286 287 287 289
233 234 233 233 232 232 233 236 238 241 242 242 243 244 244 244 243 243 244 246 248 251 253 255 257 260 263 266 270 274 277 280 282 283 283 283 282 282 281 279 276 274 274 276 279 282 284 285 283 280 274 269 264 261 260 261 264 268 271 274 277 280 284 287 289 289 288 286 284 283 282 283 284 284 285 286 286 287 287 288 288 287 287 287 287 288
232 233 233 233 234 233 233 234 237 240 240 241 242 243 244 245 246 247 248 249 251 253 254 255 256 258 261 265 269 273 276 279 280 281 281 281 280 279 278 275 273 272 273 275 279 282 284 284 283 279 274 269 265 261 260 261 263 266 269 272 275 278 282 285 286 286 285 283 282 281 280 280 281 282 283 284 285 286 287 287 288 288 288 288 289 290
232 233 233 234 235 235 234 234 235 238 239 240 241 242 243 246 248 250 251 252 254 254 255 255 256 257 260 264 269 274 277 280 281 281 281 279 278 277 275 273 271 270 272 275 278 281 283 283 282 279 275 270 265 262 260 261 262 265 267 270 273 277 281 283 284 284 282 281 280 279 279 279 279 280 281 282 284 285 286 287 287 288 289 289 290 291
231 232 233 234 235 235 234 233 234 236 238 239 239 241 243 245 248 251 253 254 255 255 255 255 255 256 259 264 271 277 280 282 282 281 279 277 275 273 272 270 269 269 270 274 276 278 280 281 281 279 275 271 267 264 262 261 262 263 264 267 271 276 280 282 282 281 280 279 278 278 278 278 278 279 279 281 282 283 284 286 286 287 288 289 290 291
231 232 233 235 235 235 233 233 234 236 238 239 239 241 243 246 249 252 254 255 256 256 256 255 254 256 260 267 275 281 283 284 283 280 276 273 270 269 267 266 266 267 269 271 273 275 277 279 279 277 275 272 269 266 263 261 261 260 261 264 269 274 278 279 279 278 277 277 276 276 277 277 277 277 278 279 280 281 283 284 285 286 287 288 289 290
231 232 233 234 235 234 233 233 234 236 238 240 241 243 245 248 251 253 254 255 256 257 257 256 255 257 263 272 280 284 285 284 283 280 275 271 267 264 263 262 263 266 268 270 271 272 274 276 276 274 273 272 270 267 264 261 259 257 257 260 265 271 275 276 275 275 275 275 275 276 276 276 276 276 277 277 278 280 281 283 284 285 286 287 288 289
232 233 233 234 234 233 233 234 236 238 240 241 242 244 246 249 252 254 255 255 256 257 258 257 257 259 264 272 280 283 284 284 283 280 276 271 266 261 258 259 261 265 268 269 270 271 273 273 272 270 270 269 267 265 262 259 256 255 255 258 264 269 271 272 272 272 273 273 274 275 275 276 276 276 276 277 278 279 280 281 283 284 285 286 287 287
234 235 235 234 234 233 234 236 238 239 241 242 244 245 247 250 253 255 256 256 257 257 258 258 257 258 262 270 277 281 283 283 282 279 275 271 265 260 257 258 261 265 267 268 269 270 270 269 267 265 265 264 263 260 257 254 253 253 255 260 264 267 268 268 269 270 271 272 273 274 274 275 276 276 276 277 278 278 279 280 281 282 283 284 285 286
236 237 236 235 234 234 235 238 240 241 242 244 245 247 249 251 253 255 256 257 257 258 258 258 256 256 261 268 276 280 281 280 278 275 273 270 266 262 259 260 263 265 267 267 267 267 265 263 260 259 259 258 256 253 251 249 250 253 257 262 265 266 266 266 266 268 269 271 272 273 274 275 275 276 277 277 278 279 279 280 280 281 282 283 283 284
237 238 237 235 234 234 236 239 241 243 244 246 247 248 250 252 253 254 255 256 257 258 259 257 255 256 262 270 276 279 278 275 271 269 270 270 268 265 262 262 263 264 264 264 263 261 258 255 254 253 253 252 250 248 247 248 251 256 260 264 265 265 264 264 265 267 268 269 271 272 273 274 275 276 277 277 278 278 279 279 280 280 281 282 282 283
238 239 238 236 235 236 237 240 242 244 246 248 249 251 252 253 254 255 255 255 256 257 257 256 255 258 265 272 276 276 273 268 265 266 268 269 268 265 263 261 261 260 260 259 257 254 251 248 247 248 248 248 247 247 249 252 256 260 263 264 264 263 263 264 265 266 267 268 270 271 272 273 274 275 276 277 278 278 279 279 280 280 281 282 283 283
238 239 238 237 237 237 238 240 243 245 248 250 252 253 254 255 256 256 255 255 254 255 255 254 256 261 268 273 275 272 266 262 261 263 267 268 267 264 260 258 256 255 254 252 250 248 245 243 243 244 245 246 248 250 253 257 260 263 264 263 262 262 262 263 264 266 267 268 269 270 271 273 274 275 276 277 278 278 279 280 281 281 282 283 284 284
239 239 239 238 237 237 239 241 244 246 249 252 253 254 255 256 256 256 255 252 251 251 253 255 260 266 272 274 272 266 261 258 258 262 266 266 264 261 256 252 250 248 247 246 245 243 242 241 242 243 246 248 251 255 258 260 262 263 263 262 261 261 262 263 264 265 266 268 269 270 272 273 274 275 276 277 278 279 280 281 282 282 283 284 285 285
238 238 238 237 236 237 239 241 244 247 250 253 255 256 257 257 258 257 254 251 249 250 253 259 265 270 273 272 268 262 257 255 257 261 264 263 259 255 250 246 243 242 241 241 241 241 241 242 243 246 249 252 255 258 260 261 262 261 261 260 260 260 261 262 263 265 266 268 269 271 272 274 275 276 277 278 279 280 281 282 283 284 284 285 285 286
237 236 235 234 235 237 239 242 245 248 251 254 256 257 258 258 259 258 255 251 249 250 256 261 266 269 270 268 264 259 254 253 255 258 260 257 252 248 243 240 238 237 237 239 241 242 242 244 246 249 252 255 257 259 260 260 260 259 258 258 258 259 260 261 263 265 267 268 270 271 273 274 275 276 277 278 279 280 281 282 283 284 285 285 286 286
235 234 234 235 236 238 240 242 245 248 252 254 256 257 258 259 259 257 253 248 247 251 257 262 265 265 265 263 259 255 251 251 253 255 255 250 244 239 236 234 234 234 236 239 242 244 245 247 249 251 254 255 257 258 258 258 258 257 257 257 257 258 260 262 263 265 267 269 270 272 273 274 275 276 277 278 279 280 281 282 283 283 284 284 285 285
235 236 237 238 239 240 242 244 246 249 252 254 256 257 257 258 257 254 249 245 246 251 258 261 262 262 261 259 255 251 248 248 250 251 248 242 236 232 230 230 231 233 237 240 242 244 247 248 250 252 254 255 256 256 256 256 256 256 255 256 257 258 260 262 264 265 267 269 270 271 272 273 274 275 276 277 279 279 280 281 281 282 282 282 283 283
240 241 241 241 241 242 243 245 248 251 253 254 255 256 257 256 254 249 244 243 248 255 259 261 261 260 258 255 251 247 246 246 247 246 240 234 229 227 227 228 230 233 237 241 243 245 247 249 249 251 252 253 254 254 254 254 254 255 255 256 258 259 261 262 264 266 267 268 269 270 271 271 272 273 274 276 277 278 279 280 280 281 281 281 282 282
243 244 244 243 243 243 244 247 249 251 253 254 254 255 255 253 248 244 242 247 254 260 261 260 258 256 253 249 246 244 244 244 243 239 233 227 224 224 225 227 231 235 239 242 244 246 247 248 248 249 250 251 252 252 252 253 253 254 255 257 258 260 262 263 264 265 266 266 267 267 268 269 270 272 273 274 275 277 278 279 280 280 281 282 282 283
243 243 244 244 244 244 246 248 250 251 252 252 253 253 252 248 244 242 246 254 260 261 259 256 253 251 248 246 244 243 243 241 238 232 226 222 221 222 225 228 232 236 240 243 244 245 246 246 247 247 248 248 249 250 251 252 253 254 256 257 259 260 261 262 262 263 263 264 264 266 267 268 270 271 272 274 275 276 277 278 279 280 281 282 283 284
241 242 243 244 245 245 246 248 249 250 250 251 251 250 247 243 241 244 252 258 259 257 254 252 250 248 247 245 243 242 241 237 232 226 221 218 219 222 226 230 235 238 241 242 243 243 244 245 246 246 246 247 248 249 250 252 253 255 256 257 258 259 259 259 259 259 260 262 263 265 267 269 270 271 273 273 274 275 276 277 278 279 280 281 282 283
241 242 244 244 245 245 246 247 247 248 249 250 249 246 241 239 241 247 253 255 254 253 251 250 249 248 246 244 242 239 236 231 226 221 217 217 220 224 228 233 237 239 240 241 242 242 243 244 245 245 246 247 248 249 251 252 254 255 256 256 256 256 256 256 257 258 259 262 264 266 268 269 271 272 273 274 274 275 276 277 278 279 280 281 282 283
241 242 243 244 244 245 246 247 247 248 249 249 246 241 236 237 242 248 251 251 251 250 249 249 248 246 243 241 237 233 228 223 219 216 216 219 224 228 232 235 237 238 239 240 240 241 242 243 244 245 246 247 248 249 251 252 253 254 254 254 254 254 254 255 257 258 261 263 265 267 269 270 271 272 273 274 275 276 276 277 278 279 280 281 282 282
242 242 242 243 244 245 246 248 249 250 249 246 241 237 236 241 248 252 252 251 250 249 248 246 243 241 238 235 231 226 220 217 215 215 217 223 228 231 233 235 236 236 237 239 239 240 240 242 244 245 246 247 248 249 250 251 252 252 252 252 252 253 255 256 258 260 263 265 267 268 269 270 271 272 273 274 275 276 277 278 279 280 280 281 282 282
240 240 240 241 243 245 247 249 251 250 247 242 238 238 242 249 254 255 254 252 250 247 243 239 236 233 229 226 221 217 214 213 214 216 220 226 231 233 233 233 234 235 236 238 239 240 240 241 243 244 246 247 247 248 249 250 250 251 251 251 252 254 256 258 261 263 264 266 267 268 270 270 271 272 273 274 276 276 277 278 279 280 280 281 281 282
237 238 238 240 242 245 247 250 250 248 243 239 238 241 247 252 254 254 253 250 246 241 236 230 226 223 219 215 211 210 211 214 216 218 222 227 230 232 231 232 232 233 235 236 238 239 240 240 242 243 245 246 247 248 248 249 250 250 251 252 254 255 257 260 262 263 265 266 267 268 269 270 271 272 273 275 276 276 277 278 279 279 280 281 281 282
236 237 239 240 243 245 248 249 248 245 240 238 238 241 245 248 249 249 246 242 236 230 225 220 216 213 210 207 207 208 212 216 218 221 224 227 229 229 229 230 231 233 233 235 236 237 238 240 241 243 244 245 247 248 249 250 251 251 252 254 255 257 258 260 262 263 265 266 267 268 269 270 271 272 273 274 275 276 277 277 278 279 279 280 281 281
236 238 240 242 244 246 248 249 247 243 239 237 236 236 237 240 242 241 237 230 224 218 214 211 208 206 205 205 207 210 215 218 220 223 226 227 227 227 228 229 230 232 232 233 234 235 236 238 240 242 244 245 247 249 250 251 252 253 254 255 257 258 259 261 262 263 264 265 266 268 269 270 271 272 273 274 275 276 276 277 278 278 279 279 280 281
237 239 241 244 246 247 248 247 245 242 238 233 230 228 229 232 233 230 224 217 212 208 206 204 204 203 204 206 210 214 217 219 221 223 225 226 226 226 227 228 230 231 232 232 233 234 235 237 240 242 244 246 247 249 251 253 254 255 256 257 258 259 259 261 262 263 264 265 266 267 268 270 271 272 273 274 275 276 277 277 278 278 279 279 280 280
237 239 242 244 246 247 247 245 243 239 234 228 223 221 223 225 223 218 212 207 204 203 202 202 203 204 206 209 213 217 219 221 222 223 224 225 225 226 226 228 230 231 232 232 233 234 236 237 240 242 244 246 247 249 251 253 255 256 257 257 258 259 260 261 261 262 263 264 265 267 268 269 270 272 273 274 275 276 276 277 278 278 279 279 279 280
238 240 241 243 244 244 244 242 239 234 227 220 217 217 218 217 212 207 203 201 200 200 201 202 204 206 209 213 217 220 222 223 223 223 223 224 225 226 227 228 230 231 232 233 234 235 236 238 240 242 244 246 248 250 251 253 254 255 256 257 258 259 260 261 261 262 263 264 265 266 267 268 269 271 272 273 274 275 275 276 277 277 278 278 279 279
239 240 241 242 242 241 240 237 232 225 218 214 214 213 211 208 203 200 198 198 199 200 201 203 206 209 213 217 220 222 222 223 223 223 223 224 225 226 228 229 230 231 233 234 235 236 238 240 241 243 245 247 249 251 252 254 255 255 256 256 257 258 259 260 261 262 263 264 265 266 267 267 268 269 270 272 272 273 274 275 275 276 276 277 278 278
239 239 239 239 238 237 234 229 223 216 212 210 209 207 203 200 198 197 197 198 199 201 203 206 210 213 217 219 220 221 221 221 221 222 223 224 225 227 228 229 230 232 233 235 237 239 241 242 244 245 247 249 250 252 253 254 255 256 256 257 257 258 259 260 261 262 263 264 264 265 266 267 268 269 270 271 272 272 273 274 274 275 276 276 277 277
236 236 236 236 234 230 226 219 213 209 208 207 204 200 197 196 196 196 198 199 201 204 207 210 214 217 219 219 219 219 219 219 220 221 222 223 225 227 228 230 231 233 235 236 239 241 243 244 246 247 249 250 252 253 253 254 255 256 256 257 257 258 259 260 261 262 263 264 264 265 266 267 268 268 269 270 271 272 273 274 274 275 275 276 276 277
232 232 232 231 227 222 216 211 207 205 204 201 198 196 195 195 196 197 199 202 204 207 210 213 216 217 217 217 216 216 217 218 219 220 222 223 225 227 229 231 232 234 236 238 240 242 245 246 248 249 250 251 252 253 253 254 255 256 256 257 257 258 259 260 261 262 263 264 264 265 266 266 267 268 269 270 271 272 273 274 275 275 276 276 276 277
229 228 227 223 219 213 208 205 204 202 199 196 194 194 194 195 197 199 202 205 208 210 212 213 214 214 214 214 214 215 216 217 219 220 222 224 226 228 230 232 234 236 238 239 241 243 246 248 249 250 251 252 253 253 254 254 255 256 256 257 258 258 259 260 260 261 262 263 264 265 265 266 267 268 269 270 271 272 273 274 275 275 276 276 276 277
226 224 220 215 210 206 203 202 200 198 195 194 193 194 195 197 199 201 204 207 209 210 211 211 212 212 212 212 213 215 216 217 219 221 222 225 227 229 231 233 235 237 239 241 242 244 246 248 250 251 252 253 253 254 254 255 256 256 257 258 259 259 260 260 261 261 262 263 264 265 265 266 267 268 269 270 271 272 273 274 275 275 276 276 276 276
220 216 212 208 204 202 201 199 197 194 193 193 194 195 196 198 200 203 205 207 208 208 209 209 210 210 211 212 214 216 217 218 220 222 224 226 228 231 233 235 237 238 240 241 243 245 247 248 250 251 252 253 254 254 255 256 256 257 258 259 260 260 261 262 262 263 263 263 264 264 265 266 267 268 269 271 272 272 273 274 275 275 275 276 276 276
213 209 206 203 202 200 198 196 194 193 193 193 195 196 198 200 202 204 205 206 206 207 207 208 209 211 212 213 215 217 218 220 222 224 225 227 229 232 234 236 238 240 241 242 244 246 247 249 250 252 253 254 254 255 256 256 257 258 259 260 261 262 262 263 263 263 264 264 265 265 266 267 268 269 270 271 272 273 273 274 274 275 275 275 275 275
207 204 203 202 200 198 196 193 192 192 193 195 196 197 199 201 202 204 204 205 206 206 207 209 210 212 213 215 217 218 220 222 224 226 228 229 231 233 235 237 239 241 242 244 245 246 248 250 251 252 253 254 255 255 256 257 258 259 260 261 262 262 263 264 264 264 265 265 266 266 267 268 268 269 270 271 272 272 273 274 274 274 274 274 275 275
203 202 202 201 198 196 193 192 192 193 194 196 197 198 200 201 202 203 204 205 206 207 208 209 211 213 215 216 218 221 222 224 226 228 230 232 234 235 237 238 240 241 243 244 246 247 249 250 251 253 254 255 255 256 257 258 259 260 261 262 263 264 264 264 265 265 266 266 267 267 268 268 269 270 270 271 271 272 272 273 273 274 274 274 274 274
202 202 200 198 195 193 192 192 193 194 195 197 198 199 201 202 203 204 204 205 206 207 209 210 213 214 216 218 221 223 225 227 228 230 232 234 235 237 238 239 241 242 244 245 246 248 249 250 252 253 254 255 256 257 257 258 259 260 261 263 263 264 265 265 265 266 266 267 267 268 269 269 270 270 271 271 272 272 272 272 273 273 273 274 274 274
202 200 197 195 193 192 192 193 194 195 197 198 199 200 202 203 204 205 206 206 207 209 210 212 214 216 218 220 223 225 227 229 230 232 234 236 237 238 239 241 242 244 245 246 247 249 250 251 252 253 255 255 256 257 258 258 259 260 261 263 263 264 265 265 265 266 266 267 267 268 269 270 270 271 271 272 272 272 272 272 272 273 273 274 274 274
Height
3073 3074 3075 3075 3075 3075 3075 3075 3076 3077 3078 3080 3081 3082 3084 3086 3089 3091 3092 3092 3093 3093 3093 3094 3094 3094 3094 3094 3094 3094 3094 3094 3094 3093 3093 3093 3093 3093 3092 3092 3091 3091 3090 3090 3089 3089 3089 3089 3089 3089 3089 3089 3089 3089 3089 3089 3088 3088 3087 3086 3086 3085 3085 3084 3084 3083 3082 3081 3081 3080 3081 3081 3080 3079 3079 3078 3078 3077 3077 3077 3078 3077 3077 3076 3076 3076
3069 3070 3071 3071 3071 3072 3072 3073 3074 3074 3075 3077 3078 3079 3081 3084 3086 3088 3089 3089 3090 3090 3091 3091 3091 3092 3092 3092 3092 3092 3092 3091 3091 3091 3091 3090 3090 3090 3089 3089 3089 3088 3088 3088 3087 3087 3087 3087 3087 3087 3087 3087 3087 3087 3087 3087 3086 3086 3085 3085 3084 3084 3083 3083 3082 3082 3081 3080 3079 3078 3078 3079 3079 3079 3078 3077 3076 3076 3076 3076 3076 3075 3075 3075 3075 3074
3065 3067 3067 3067 3068 3069 3069 3070 3071 3072 3073 3074 3075 3076 3079 3081 3084 3085 3086 3087 3087 3088 3088 3089 3089 3089 3089 3089 3089 3089 3089 3089 3089 3088 3088 3088 3088 3087 3087 3086 3086 3086 3085 3085 3085 3085 3085 3085 3084 3084 3084 3084 3084 3085 3085 3084 3084 3084 3084 3083 3082 3081 3081 3080 3080 3080 3079 3078 3077 3076 3076 3076 3077 3077 3076 3076 3075 3075 3074 3074 3074 3074 3074 3074 3073 3073
3062 3063 3063 3064 3065 3066 3067 3068 3068 3069 3070 3071 3072 3074 3076 3079 3081 3083 3084 3084 3085 3085 3085 3086 3086 3086 3087 3087 3087 3087 3087 3086 3086 3086 3086 3085 3085 3084 3084 3084 3083 3083 3083 3082 3082 3083 3083 3083 3082 3082 3082 3082 3082 3082 3083 3083 3082 3082 3082 3081 3080 3079 3079 3079 3078 3078 3077 3077 3076 3074 3074 3074 3074 3074 3074 3074 3074 3074 3074 3073 3073 3072 3072 3072 3072 3072
3058 3059 3059 3061 3062 3063 3064 3065 3066 3067 3068 3069 3070 3071 3074 3076 3078 3080 3081 3082 3082 3082 3083 3083 3083 3084 3084 3084 3084 3084 3084 3084 3084 3083 3083 3083 3082 3082 3081 3081 3081 3080 3080 3080 3080 3081 3081 3080 3080 3079 3079 3079 3080 3080 3080 3080 3080 3080 3079 3079 3079 3078 3077 3077 3076 3076 3075 3075 3074 3073 3072 3072 3072 3072 3072 3072 3072 3072 3072 3072 3071 3071 3071 3071 3070 3070
3054 3055 3056 3058 3059 3059 3060 3062 3063 3064 3065 3066 3067 3069 3071 3073 3075 3077 3078 3079 3079 3079 3080 3080 3080 3081 3081 3081 3081 3081 3081 3081 3081 3081 3080 3080 3080 3079 3079 3079 3078 3078 3078 3078 3079 3079 3079 3078 3078 3077 3077 3077 3077 3078 3078 3078 3078 3078 3078 3077 3077 3076 3075 3075 3074 3074 3074 3074 3073 3072 3071 3070 3070 3070 3070 3070 3070 3070 3070 3070 3070 3069 3069 3069 3069 3069
3050 3051 3053 3054 3055 3056 3057 3059 3060 3062 3063 3063 3064 3066 3068 3070 3072 3074 3075 3075 3076 3076 3077 3077 3077 3078 3078 3079 3079 3079 3079 3079 3078 3078 3078 3077 3077 3076 3076 3076 3076 3076 3076 3077 3077 3077 3076 3075 3075 3074 3074 3074 3075 3075 3075 3076 3076 3076 3075 3075 3075 3074 3074 3073 3073 3072 3072 3072 3071 3070 3069 3069 3069 3068 3068 3068 3068 3068 3069 3069 3068 3068 3068 3067 3067 3067
3047 3048 3049 3050 3051 3052 3054 3055 3057 3058 3059 3060 3062 3064 3066 3068 3069 3070 3072 3072 3073 3074 3074 3074 3074 3075 3075 3075 3076 3076 3076 3076 3075 3075 3075 3074 3074 3074 3074 3074 3074 3074 3074 3075 3074 3074 3074 3073 3072 3072 3072 3072 3072 3073 3073 3073 3074 3074 3073 3073 3073 3073 3072 3071 3071 3070 3070 3070 3070 3069 3069 3068 3067 3067 3066 3066 3066 3066 3066 3066 3066 3066 3066 3066 3066 3065
3043 3044 3045 3046 3047 3048 3050 3052 3053 3054 3055 3057 3059 3061 3063 3064 3066 3067 3069 3069 3070 3070 3071 3071 3071 3072 3073 3073 3073 3073 3073 3073 3073 3072 3072 3072 3071 3071 3071 3071 3072 3072 3072 3072 3072 3072 3071 3070 3070 3069 3069 3070 3070 3070 3070 3071 3071 3071 3071 3071 3071 3070 3070 3069 3069 3068 3068 3068 3068 3068 3067 3066 3066 3065 3064 3064 3064 3064 3064 3064 3064 3064 3064 3064 3064 3064
3038 3040 3041 3042 3043 3044 3046 3048 3049 3050 3052 3054 3056 3058 3060 3061 3063 3064 3065 3066 3067 3067 3068 3068 3068 3069 3069 3070 3070 3070 3070 3070 3069 3069 3069 3069 3069 3069 3069 3069 3069 3070 3070 3070 3069 3069 3068 3068 3067 3067 3067 3067 3067 3068 3068 3068 3069 3069 3069 3069 3069 3068 3068 3067 3067 3066 3066 3066 3066 3066 3065 3065 3064 3064 3063 3063 3062 3062 3063 3063 3063 3062 3062 3062 3062 3062
3034 3035 3036 3037 3039 3041 3043 3044 3045 3046 3049 3051 3053 3055 3057 3058 3060 3061 3062 3063 3064 3064 3065 3065 3065 3066 3067 3067 3067 3067 3067 3066 3066 3067 3067 3066 3066 3066 3066 3067 3067 3067 3067 3067 3067 3066 3066 3065 3065 3064 3064 3064 3065 3065 3065 3066 3066 3066 3066 3066 3066 3066 3065 3065 3064 3064 3064 3064 3064 3064 3064 3064 3063 3062 3062 3061 3061 3061 3061 3061 3061 3060 3060 3060 3060 3059
3029 3031 3032 3033 3035 3037 3039 3040 3041 3043 3045 3048 3050 3052 3054 3055 3057 3058 3059 3060 3061 3061 3062 3062 3063 3064 3064 3064 3065 3064 3064 3063 3063 3064 3064 3064 3064 3064 3064 3064 3065 3064 3064 3064 3064 3064 3063 3063 3062 3062 3062 3062 3062 3062 3063 3063 3064 3064 3064 3064 3064 3064 3063 3063 3062 3062 3061 3061 3061 3062 3062 3062 3061 3061 3060 3060 3059 3059 3059 3059 3059 3059 3059 3059 3058 3058
3026 3027 3028 3029 3031 3034 3035 3037 3038 3040 3042 3044 3047 3049 3051 3053 3054 3056 3057 3058 3058 3059 3059 3059 3059 3060 3061 3062 3062 3061 3061 3060 3060 3060 3061 3061 3061 3061 3062 3062 3062 3062 3062 3062 3062 3061 3061 3060 3060 3059 3059 3059 3059 3059 3060 3060 3061 3061 3062 3062 3062 3062 3061 3060 3060 3059 3059 3059 3059 3059 3059 3059 3059 3059 3059 3059 3058 3058 3058 3057 3057 3057 3057 3057 3056 3056
3022 3022 3024 3025 3028 3030 3032 3033 3035 3037 3039 3041 3044 3046 3048 3050 3052 3053 3054 3055 3055 3056 3056 3056 3057 3057 3058 3058 3058 3058 3058 3057 3057 3057 3057 3057 3058 3059 3059 3059 3059 3059 3059 3059 3059 3059 3058 3058 3057 3057 3057 3056 3056 3057 3057 3057 3058 3059 3059 3060 3060 3060 3059 3058 3058 3057 3057 3057 3058 3058 3058 3058 3058 3058 3057 3057 3057 3056 3056 3056 3056 3055 3055 3055 3055 3054
3017 3018 3019 3022 3024 3026 3028 3030 3032 3034 3036 3039 3042 3044 3046 3047 3049 3050 3051 3052 3052 3053 3053 3053 3054 3054 3054 3055 3055 3055 3054 3054 3054 3054 3054 3054 3054 3055 3056 3056 3056 3056 3056 3056 3056 3056 3055 3055 3054 3054 3054 3054 3054 3054 3054 3055 3055 3056 3057 3057 3058 3058 3057 3056 3056 3055 3055 3055 3056 3056 3056 3056 3056 3056 3056 3055 3055 3055 3055 3054 3054 3054 3054 3054 3053 3053
3013 3014 3016 3018 3021 3023 3025 3027 3029 3031 3034 3036 3039 3041 3042 3044 3045 3047 3048 3049 3049 3050 3050 3050 3051 3051 3051 3052 3052 3052 3052 3051 3051 3051 3051 3051 3051 3052 3053 3053 3053 3053 3053 3053 3053 3053 3053 3052 3052 3052 3051 3051 3052 3052 3052 3053 3053 3054 3054 3055 3055 3055 3055 3054 3054 3054 3054 3054 3054 3054 3054 3054 3054 3054 3054 3054 3054 3054 3053 3053 3053 3053 3052 3052 3052 3052
3010 3011 3013 3016 3018 3020 3022 3024 3026 3028 3031 3033 3035 3037 3039 3041 3042 3043 3044 3045 3046 3046 3046 3047 3048 3048 3049 3049 3049 3049 3049 3049 3049 3049 3049 3049 3049 3049 3049 3049 3049 3049 3050 3050 3050 3050 3049 3049 3049 3049 3049 3049 3049 3049 3050 3050 3051 3052 3052 3053 3053 3053 3053 3053 3052 3052 3052 3052 3052 3052 3052 3052 3052 3052 3052 3052 3052 3052 3052 3052 3051 3051 3051 3051 3050 3050
3006 3008 3010 3012 3014 3017 3019 3021 3024 3025 3028 3030 3032 3034 3036 3037 3039 3040 3041 3042 3042 3043 3043 3044 3044 3045 3046 3046 3046 3046 3046 3047 3047 3046 3046 3046 3046 3046 3047 3047 3047 3047 3047 3047 3047 3047 3047 3046 3046 3046 3046 3046 3047 3048 3048 3049 3049 3050 3050 3051 3051 3051 3051 3051 3050 3050 3050 3050 3050 3050 3050 3050 3050 3050 3050 3050 3050 3050 3050 3050 3050 3049 3049 3049 3049 3048
3003 3005 3007 3009 3011 3014 3016 3018 3020 3023 3025 3027 3029 3031 3033 3034 3035 3036 3037 3038 3039 3039 3040 3041 3041 3042 3043 3043 3043 3043 3044 3044 3044 3043 3043 3043 3044 3044 3044 3044 3044 3044 3044 3044 3044 3044 3044 3044 3044 3044 3044 3044 3045 3045 3046 3047 3047 3048 3049 3049 3049 3049 3049 3049 3049 3049 3049 3049 3049 3049 3049 3049 3049 3049 3049 3049 3049 3049 3048 3048 3048 3048 3048 3047 3047 3047
2999 3002 3004 3006 3008 3011 3013 3015 3018 3020 3022 3024 3027 3028 3029 3030 3032 3033 3034 3035 3036 3036 3037 3038 3038 3039 3039 3039 3040 3040 3041 3041 3040 3040 3040 3040 3040 3041 3041 3041 3041 3041 3041 3042 3042 3041 3041 3041 3041 3041 3042 3042 3043 3044 3044 3045 3046 3046 3047 3047 3047 3047 3047 3047 3047 3047 3047 3047 3047 3047 3047 3047 3047 3047 3047 3047 3047 3047 3046 3046 3046 3046 3046 3045 3045 3045
2997 2999 3000 3003 3005 3007 3009 3012 3015 3018 3019 3021 3023 3024 3025 3027 3028 3029 3030 3032 3032 3033 3033 3034 3035 3035 3036 3036 3037 3037 3037 3037 3037 3037 3037 3037 3038 3038 3038 3038 3039 3039 3039 3039 3039 3039 3039 3039 3039 3039 3040 3041 3041 3042 3043 3043 3044 3044 3044 3045 3045 3045 3045 3045 3045 3045 3045 3045 3045 3045 3045 3045 3045 3045 3045 3045 3045 3045 3044 3044 3044 3044 3044 3044 3043 3043
2993 2995 2998 3000 3002 3004 3006 3009 3012 3014 3016 3018 3019 3020 3021 3023 3024 3026 3027 3028 3029 3029 3030 3031 3031 3032 3032 3033 3033 3033 3033 3034 3034 3034 3034 3034 3034 3035 3035 3036 3036 3036 3037 3037 3037 3037 3037 3037 3037 3038 3038 3039 3039 3040 3041 3041 3042 3042 3043 3043 3043 3043 3043 3043 3043 3043 3044 3044 3044 3044 3044 3044 3044 3044 3043 3043 3043 3043 3043 3043 3043 3042 3042 3042 3042 3041
2990 2993 2995 2997 2999 3001 3004 3006 3009 3011 3012 3014 3015 3016 3018 3019 3021 3022 3023 3024 3024 3025 3026 3027 3028 3029 3029 3030 3029 3029 3029 3030 3031 3031 3031 3031 3032 3032 3033 3033 3034 3034 3034 3034 3034 3034 3035 3035 3035 3036 3036 3037 3038 3038 3039 3039 3040 3040 3041 3041 3041 3041 3041 3041 3041 3042 3042 3042 3042 3042 3042 3042 3042 3042 3042 3041 3041 3041 3041 3041 3041 3041 3040 3040 3040 3040
2988 2990 2992 2994 2996 2998 3000 3003 3005 3007 3009 3010 3012 3013 3014 3016 3017 3018 3019 3020 3021 3022 3023 3024 3025 3025 3025 3025 3025 3026 3026 3027 3028 3028 3028 3029 3029 3029 3030 3030 3031 3031 3032 3032 3032 3032 3033 3033 3034 3034 3034 3035 3036 3037 3037 3038 3038 3039 3039 3039 3039 3039 3039 3039 3040 3040 3040 3040 3040 3040 3040 3040 3040 3040 3040 3040 3039 3039 3039 3039 3039 3039 3039 3039 3039 3038
2984 2987 2989 2991 2993 2995 2998 3000 3002 3004 3005 3007 3008 3010 3011 3012 3013 3014 3015 3016 3018 3019 3020 3020 3020 3020 3020 3021 3022 3022 3023 3024 3024 3025 3025 3025 3026 3026 3027 3028 3029 3029 3029 3030 3030 3030 3031 3031 3032 3032 3032 3033 3034 3035 3035 3036 3036 3037 3037 3038 3038 3038 3038 3038 3038 3038 3038 3038 3038 3038 3039 3038 3038 3038 3038 3038 3038 3038 3038 3038 3037 3037 3037 3037 3037 3037
2982 2984 2987 2989 2991 2993 2995 2997 2999 3000 3002 3003 3004 3005 3007 3008 3009 3010 3011 3013 3014 3015 3015 3016 3016 3016 3016 3017 3018 3019 3020 3021 3021 3022 3022 3023 3023 3024 3024 3025 3026 3027 3027 3028 3028 3028 3029 3029 3030 3030 3031 3031 3032 3033 3034 3034 3034 3035 3035 3036 3036 3036 3036 3036 3036 3036 3036 3037 3037 3037 3037 3037 3037 3037 3036 3036 3036 3036 3036 3036 3036 3035 3035 3035 3035 3035
2981 2983 2985 2987 2988 2989 2992 2993 2995 2997 2998 2999 3000 3001 3003 3004 3005 3006 3007 3008 3009 3010 3011 3011 3012 3013 3013 3014 3015 3016 3017 3018 3018 3019 3019 3019 3020 3021 3022 3023 3024 3024 3025 3025 3026 3026 3027 3027 3028 3029 3029 3030 3030 3031 3032 3032 3033 3033 3034 3034 3034 3034 3034 3034 3034 3034 3035 3035 3035 3035 3035 3035 3035 3035 3035 3034 3034 3034 3034 3034 3034 3034 3034 3034 3033 3033
2979 2981 2983 2984 2985 2986 2988 2990 2991 2993 2994 2995 2997 2998 2999 3000 3001 3002 3003 3004 3006 3007 3007 3008 3009 3009 3010 3011 3012 3013 3014 3014 3015 3015 3016 3016 3017 3018 3019 3020 3021 3022 3023 3023 3024 3024 3025 3025 3026 3027 3027 3028 3029 3029 3030 3030 3031 3031 3032 3032 3032 3032 3033 3033 3033 3033 3033 3033 3033 3033 3033 3033 3033 3033 3033 3033 3033 3033 3033 3032 3032 3032 3032 3032 3032 3032
2977 2978 2979 2981 2982 2983 2985 2987 2988 2989 2990 2992 2993 2994 2995 2996 2998 2999 3000 3002 3003 3004 3004 3005 3006 3006 3007 3008 3009 3009 3010 3011 3012 3012 3013 3014 3015 3016 3017 3018 3019 3020 3020 3021 3022 3022 3023 3023 3024 3025 3025 3026 3027 3027 3028 3029 3029 3029 3030 3030 3030 3031 3031 3031 3031 3031 3031 3031 3031 3031 3031 3031 3031 3031 3031 3031 3031 3031 3031 3031 3031 3031 3030 3030 3030 3030
2973 2975 2976 2978 2979 2980 2982 2983 2984 2986 2987 2988 2989 2991 2993 2994 2995 2996 2998 2999 3000 3000 3001 3002 3003 3003 3004 3005 3005 3006 3007 3008 3009 3010 3011 3011 3013 3014 3015 3016 3017 3018 3018 3019 3019 3020 3020 3021 3022 3023 3024 3024 3025 3025 3026 3027 3027 3028 3028 3029 3029 3029 3029 3029 3029 3029 3029 3029 3029 3029 3029 3029 3029 3029 3029 3029 3029 3029 3029 3029 3029 3029 3029 3029 3029 3029
2969 2971 2973 2974 2976 2977 2978 2979 2981 2982 2984 2985 2987 2989 2990 2991 2993 2994 2995 2996 2996 2997 2997 2998 2999 3000 3001 3001 3002 3003 3004 3005 3006 3008 3009 3009 3011 3012 3013 3014 3015 3015 3016 3017 3017 3018 3019 3019 3020 3021 3022 3023 3023 3024 3024 3025 3025 3026 3026 3027 3027 3027 3027 3027 3028 3028 3028 3027 3027 3027 3027 3027 3027 3027 3027 3027 3027 3027 3027 3027 3027 3027 3027 3027 3027 3027
2966 2968 2970 2971 2973 2974 2975 2976 2978 2979 2981 2983 2984 2986 2987 2988 2989 2991 2992 2992 2993 2993 2994 2995 2996 2997 2997 2998 2999 3000 3002 3003 3004 3006 3007 3008 3009 3010 3011 3012 3013 3013 3014 3014 3015 3016 3017 3018 3019 3019 3020 3021 3021 3022 3023 3023 3024 3024 3025 3025 3025 3025 3025 3025 3025 3025 3025 3025 3025 3025 3025 3025 3025 3025 3025 3025 3025 3025 3025 3025 3025 3025 3025 3025 3025 3025
2963 2965 2967 2968 2969 2971 2972 2973 2975 2976 2978 2980 2981 2982 2983 2984 2986 2987 2987 2988 2989 2990 2990 2991 2992 2993 2994 2995 2997 2999 3000 3001 3002 3003 3004 3006 3007 3008 3009 3009 3010 3011 3012 3013 3014 3014 3015 3016 3017 3017 3018 3019 3020 3020 3021 3021 3022 3023 3023 3023 3023 3023 3023 3023 3023 3023 3023 3023 3023 3023 3024 3024 3024 3024 3024 3024 3024 3024 3024 3024 3024 3024 3024 3024 3023 3023
2959 2961 2963 2965 2966 2967 2969 2970 2972 2974 2976 2977 2978 2979 2980 2981 2982 2983 2984 2984 2985 2987 2988 2989 2989 2990 2992 2993 2995 2996 2998 2999 2999 3001 3002 3003 3004 3005 3006 3007 3008 3009 3009 3010 3012 3013 3014 3014 3015 3016 3016 3017 3018 3019 3019 3019 3020 3020 3021 3021 3021 3021 3021 3021 3021 3021 3021 3021 3021 3021 3022 3022 3022 3022 3022 3022 3022 3022 3022 3022 3022 3022 3022 3022 3021 3021
2956 2958 2960 2961 2963 2964 2965 2967 2969 2971 2972 2973 2974 2976 2977 2978 2979 2979 2980 2981 2983 2984 2985 2986 2987 2989 2990 2991 2993 2994 2995 2996 2997 2999 3000 3001 3002 3003 3004 3005 3006 3007 3008 3009 3010 3011 3012 3012 3013 3014 3014 3015 3016 3017 3017 3018 3018 3018 3019 3019 3019 3019 3019 3019 3019 3019 3019 3019 3019 3019 3020 3020 3020 3020 3020 3020 3020 3020 3020 3020 3020 3020 3020 3020 3019 3019
2953 2955 2956 2958 2959 2961 2962 2964 2966 2967 2968 2969 2971 2972 2973 2974 2975 2976 2977 2979 2980 2981 2982 2984 2985 2987 2988 2989 2991 2992 2993 2994 2995 2997 2998 2999 3000 3001 3002 3003 3004 3005 3006 3007 3008 3009 3010 3010 3011 3012 3013 3013 3014 3014 3015 3015 3016 3016 3016 3017 3017 3017 3017 3017 3017 3017 3017 3018 3018 3018 3018 3018 3018 3018 3018 3018 3018 3018 3018 3018 3018 3018 3018 3018 3018 3018
2949 2951 2953 2954 2956 2957 2959 2961 2962 2964 2964 2966 2967 2969 2969 2970 2972 2973 2974 2976 2977 2979 2980 2981 2983 2984 2986 2988 2989 2990 2991 2992 2994 2994 2996 2997 2998 2999 2999 3001 3002 3003 3004 3005 3006 3007 3008 3009 3009 3010 3011 3011 3012 3012 3013 3013 3014 3014 3014 3014 3014 3015 3015 3015 3015 3015 3015 3015 3016 3016 3016 3016 3016 3016 3016 3016 3016 3016 3016 3016 3016 3016 3016 3016 3016 3016
2946 2948 2950 2951 2952 2954 2955 2957 2959 2960 2961 2963 2964 2965 2966 2967 2969 2970 2972 2973 2975 2976 2978 2979 2981 2983 2984 2986 2987 2988 2989 2990 2992 2993 2994 2994 2995 2997 2998 2999 3000 3001 3002 3003 3004 3005 3006 3007 3007 3008 3009 3009 3010 3010 3011 3011 3011 3012 3012 3012 3013 3013 3013 3013 3013 3013 3013 3014 3014 3014 3014 3014 3014 3014 3014 3014 3014 3014 3014 3014 3014 3014 3014 3014 3014 3014
2943 2945 2946 2947 2949 2950 2952 2954 2955 2956 2958 2959 2961 2962 2963 2964 2966 2967 2969 2971 2973 2974 2976 2978 2979 2981 2982 2984 2985 2986 2987 2989 2990 2991 2992 2993 2994 2995 2996 2997 2998 2999 3000 3001 3002 3003 3004 3005 3005 3006 3007 3007 3008 3008 3009 3009 3009 3010 3010 3010 3010 3011 3011 3011 3011 3011 3011 3011 3012 3012 3012 3012 3012 3012 3012 3012 3012 3012 3012 3012 3012 3012 3012 3011 3011 3011
2939 2941 2943 2944 2945 2947 2949 2950 2952 2954 2955 2957 2958 2959 2960 2962 2963 2965 2967 2969 2970 2972 2974 2976 2977 2979 2980 2982 2983 2984 2985 2987 2988 2989 2989 2991 2992 2993 2994 2995 2996 2998 2999 2999 3000 3001 3002 3003 3004 3004 3005 3005 3006 3006 3007 3007 3007 3008 3008 3008 3009 3009 3009 3009 3009 3009 3009 3009 3009 3010 3010 3010 3010 3010 3010 3010 3010 3010 3010 3010 3010 3009 3009 3009 3009 3009
2936 2937 2939 2941 2942 2944 2946 2947 2949 2950 2952 2953 2955 2956 2958 2959 2961 2963 2965 2967 2969 2970 2972 2974 2975 2977 2979 2980 2981 2982 2983 2984 2986 2987 2988 2989 2990 2991 2992 2994 2995 2996 2997 2998 2999 2999 3000 3001 3002 3002 3003 3004 3004 3004 3005 3005 3005 3005 3006 3006 3006 3007 3007 3007 3007 3007 3007 3007 3008 3008 3008 3008 3008 3008 3008 3008 3008 3008 3008 3008 3008 3008 3007 3007 3007 3007
2933 2934 2935 2937 2939 2940 2942 2944 2945 2947 2949 2950 2952 2954 2955 2957 2959 2961 2963 2965 2967 2969 2970 2972 2974 2975 2977 2978 2979 2980 2981 2982 2984 2985 2986 2987 2988 2989 2990 2992 2993 2994 2995 2996 2996 2997 2998 2999 2999 3000 3001 3001 3002 3002 3003 3003 3003 3004 3004 3004 3004 3004 3005 3005 3005 3005 3005 3005 3005 3005 3006 3006 3006 3006 3006 3006 3006 3006 3006 3006 3005 3005 3005 3005 3005 3005
2929 2931 2932 2934 2935 2937 2938 2940 2942 2944 2946 2947 2949 2951 2953 2955 2957 2959 2961 2963 2965 2967 2969 2970 2972 2973 2974 2976 2977 2978 2979 2980 2982 2983 2984 2985 2986 2988 2989 2990 2991 2992 2993 2994 2994 2995 2996 2997 2997 2998 2999 2999 3000 3000 3001 3001 3001 3001 3002 3002 3002 3002 3003 3003 3003 3003 3003 3003 3003 3003 3004 3004 3004 3004 3004 3004 3004 3004 3004 3004 3003 3003 3003 3003 3003 3003
2925 2927 2929 2930 2932 2934 2935 2937 2939 2941 2943 2945 2947 2949 2951 2953 2955 2958 2959 2961 2963 2965 2967 2969 2970 2971 2973 2974 2975 2976 2977 2979 2979 2981 2982 2983 2984 2985 2987 2988 2989 2990 2991 2992 2992 2993 2994 2994 2995 2996 2997 2997 2998 2998 2999 2999 2999 2999 2999 3000 3000 3000 3000 3001 3001 3001 3001 3001 3001 3001 3001 3001 3002 3002 3002 3002 3002 3002 3001 3001 3001 3001 3001 3001 3000 3000
2922 2923 2925 2927 2929 2931 2933 2935 2937 2939 2941 2943 2945 2947 2949 2951 2954 2955 2957 2959 2961 2963 2965 2966 2968 2969 2971 2972 2973 2974 2975 2977 2978 2979 2980 2981 2983 2984 2985 2986 2987 2988 2989 2989 2990 2991 2992 2992 2993 2994 2994 2995 2996 2996 2996 2996 2996 2997 2997 2997 2998 2998 2998 2999 2999 2999 2999 2999 2999 2999 2999 2999 2999 2999 3000 3000 3000 2999 2999 2999 2999 2999 2999 2998 2998 2998
2919 2920 2922 2924 2926 2929 2930 2933 2935 2937 2939 2941 2943 2945 2948 2950 2952 2954 2955 2957 2959 2961 2963 2964 2966 2968 2969 2970 2971 2972 2973 2974 2976 2977 2978 2979 2981 2982 2983 2984 2985 2986 2987 2988 2989 2989 2990 2990 2991 2992 2992 2993 2994 2994 2994 2994 2994 2994 2994 2995 2995 2996 2996 2996 2996 2997 2997 2997 2997 2997 2997 2997 2997 2997 2997 2997 2997 2997 2997 2997 2997 2996 2996 2996 2996 2996
2916 2918 2920 2922 2924 2926 2929 2930 2933 2935 2937 2939 2942 2944 2946 2948 2950 2952 2954 2955 2957 2959 2961 2963 2964 2965 2967 2968 2969 2970 2972 2973 2974 2975 2977 2978 2979 2980 2981 2982 2983 2984 2985 2986 2986 2987 2988 2989 2989 2990 2990 2991 2991 2992 2992 2992 2992 2992 2992 2993 2993 2993 2994 2994 2994 2994 2994 2994 2994 2994 2994 2995 2995 2995 2995 2995 2995 2995 2995 2994 2994 2994 2994 2994 2994 2994
2914 2916 2919 2920 2923 2924 2927 2929 2931 2934 2936 2938 2940 2942 2944 2946 2948 2950 2952 2954 2956 2958 2959 2961 2962 2964 2965 2967 2968 2969 2970 2971 2973 2974 2975 2976 2977 2979 2979 2980 2981 2982 2983 2984 2985 2985 2986 2987 2987 2988 2989 2989 2989 2989 2989 2990 2990 2990 2990 2990 2991 2991 2991 2991 2992 2992 2992 2992 2992 2992 2992 2992 2992 2993 2993 2993 2993 2993 2992 2992 2992 2992 2992 2992 2991 2991
2913 2915 2917 2919 2921 2923 2925 2928 2930 2933 2935 2937 2939 2941 2943 2945 2947 2949 2950 2953 2954 2956 2958 2959 2961 2962 2964 2965 2966 2967 2969 2969 2971 2972 2973 2974 2975 2977 2978 2979 2979 2980 2981 2982 2983 2984 2984 2985 2985 2986 2986 2987 2987 2987 2987 2988 2988 2988 2988 2989 2989 2989 2989 2989 2989 2990 2990 2990 2990 2990 2990 2990 2990 2990 2990 2990 2990 2990 2990 2990 2989 2989 2989 2989 2989 2989
2912 2914 2916 2918 2920 2923 2925 2927 2929 2932 2934 2936 2938 2940 2942 2944 2945 2947 2949 2951 2953 2954 2956 2958 2959 2961 2962 2963 2964 2966 2967 2968 2969 2970 2972 2973 2974 2975 2976 2977 2978 2979 2979 2980 2981 2982 2982 2983 2983 2984 2984 2984 2985 2985 2985 2985 2986 2986 2986 2986 2987 2987 2987 2987 2987 2988 2988 2988 2987 2987 2987 2987 2987 2987 2987 2987 2987 2988 2988 2988 2987 2987 2987 2987 2987 2987
2911 2913 2915 2918 2920 2922 2924 2927 2929 2931 2933 2934 2936 2938 2940 2942 2944 2946 2948 2949 2951 2953 2954 2956 2958 2959 2960 2962 2963 2964 2965 2966 2968 2969 2970 2971 2972 2973 2974 2975 2976 2977 2978 2978 2979 2979 2980 2981 2981 2981 2982 2982 2982 2983 2983 2983 2984 2984 2984 2984 2984 2985 2985 2985 2985 2985 2985 2985 2985 2985 2985 2985 2984 2984 2984 2984 2984 2985 2985 2985 2985 2985 2985 2984 2984 2984